TimeMST,TemperatureF,Dew PointF,Humidity,Sea Level PressureIn,VisibilityMPH,Wind Direction,Wind SpeedMPH,Gust SpeedMPH,PrecipitationIn,Events,Conditions,WindDirDegrees,DateUTC
12:53 AM,39.9,21.0,47,29.88,10.0,North,6.9,-,N/A,,Clear,10,2013-02-06 07:53:00
1:53 AM,37.9,18.0,45,29.86,10.0,North,6.9,-,N/A,,Clear,360,2013-02-06 08:53:00
2:53 AM,37.0,18.0,46,29.85,10.0,NNW,4.6,-,N/A,,Clear,330,2013-02-06 09:53:00
3:53 AM,35.1,19.0,52,29.86,10.0,Calm,Calm,-,N/A,,Clear,0,2013-02-06 10:53:00
4:53 AM,36.0,19.9,52,29.86,10.0,Calm,Calm,-,N/A,,Clear,0,2013-02-06 11:53:00
5:53 AM,34.0,19.0,54,29.87,10.0,Calm,Calm,-,N/A,,Clear,0,2013-02-06 12:53:00
6:53 AM,32.0,18.0,56,29.91,10.0,Calm,Calm,-,N/A,,Clear,0,2013-02-06 13:53:00
7:53 AM,39.9,21.0,47,29.92,10.0,NW,3.5,-,N/A,,Clear,320,2013-02-06 14:53:00
8:53 AM,48.9,19.0,31,29.90,10.0,Calm,Calm,-,N/A,,Clear,0,2013-02-06 15:53:00
9:53 AM,54.0,19.9,26,29.88,10.0,Calm,Calm,-,N/A,,Clear,0,2013-02-06 16:53:00
10:53 AM,60.1,23.0,24,29.85,10.0,ESE,5.8,-,N/A,,Clear,110,2013-02-06 17:53:00
11:53 AM,69.1,25.0,19,29.80,10.0,SSE,8.1,-,N/A,,Clear,150,2013-02-06 18:53:00
12:53 PM,73.9,27.0,18,29.75,10.0,WSW,23.0,29.9,N/A,,Clear,240,2013-02-06 19:53:00
1:53 PM,73.9,27.0,18,29.73,10.0,WSW,17.3,26.5,N/A,,Clear,240,2013-02-06 20:53:00
2:53 PM,73.0,25.0,17,29.73,10.0,WSW,17.3,-,N/A,,Clear,240,2013-02-06 21:53:00
3:53 PM,70.0,21.9,16,29.73,10.0,West,12.7,-,N/A,,Clear,260,2013-02-06 22:53:00
4:53 PM,66.9,25.0,21,29.74,10.0,WSW,10.4,-,N/A,,Clear,250,2013-02-06 23:53:00
5:53 PM,66.0,21.0,18,29.77,10.0,SW,13.8,-,N/A,,Clear,230,2013-02-07 00:53:00
6:53 PM,59.0,21.9,24,29.81,10.0,West,8.1,-,N/A,,Clear,260,2013-02-07 01:53:00
7:53 PM,61.0,19.9,21,29.80,10.0,Calm,Calm,-,N/A,,Clear,0,2013-02-07 02:53:00
8:53 PM,64.0,21.0,19,29.78,10.0,SW,9.2,-,N/A,,Clear,220,2013-02-07 03:53:00
9:53 PM,61.0,24.1,24,29.80,10.0,West,11.5,-,N/A,,Clear,260,2013-02-07 04:53:00
10:53 PM,61.0,24.1,24,29.81,10.0,West,5.8,-,N/A,,Clear,280,2013-02-07 05:53:00
11:53 PM,55.0,25.0,31,29.81,10.0,WNW,8.1,-,N/A,,Clear,290,2013-02-07 06:53:00